This demonstration page uses our WeatherBlox Daily Observations layout. Learn more.

36.17497, -115.13722

Hourly Observations for February 12, 2016

Temp ( °F °C ) Dew Point ( °F °C ) Humidity (%) Winds ( mph kmh ) Pressure ( in mb ) Visibility ( mi km ) Precip ( " mm )
12:53 am 00:53 Clear 51 10.6 25 -3.9 36 36 WNW 6 9 30.26 1025 10 16.0934 0 0
1:53 am 01:53 Clear 48 8.9 25 -3.9 41 41 NW 3 6 30.26 1025 10 16.0934 0 0
2:53 am 02:53 Clear 48 8.9 25 -3.9 41 41 WNW 6 9 30.26 1025 10 16.0934 0 0
3:53 am 03:53 Clear 47 8.3 25 -3.9 42 42 NW 6 9 30.25 1025 10 16.0934 0 0
4:53 am 04:53 Clear 45 7.2 24 -4.4 44 44 NW 6 9 30.27 1025 10 16.0934 0 0
5:53 am 05:53 Clear 45 7.2 25 -3.9 46 46 WNW 5 7 30.28 1026 10 16.0934 0 0
6:53 am 06:53 Sunny 44 6.7 24 -4.4 45 45 NW 6 9 30.3 1026 10 16.0934 0 0
7:53 am 07:53 Sunny 51 10.6 25 -3.9 36 36 W 3 6 30.31 1026 10 16.0934 0 0
8:53 am 08:53 Sunny 56 13.3 25 -3.9 30 30 Calm 30.32 1027 10 16.0934 0 0
9:53 am 09:53 Sunny 61 16.1 24 -4.4 24 24 Calm 30.31 1026 10 16.0934 0 0
10:53 am 10:53 Sunny 64 17.8 24 -4.4 22 22 Calm 30.29 1026 10 16.0934 0 0
11:53 am 11:53 Sunny 68 20 24 -4.4 19 19 Calm 30.26 1025 10 16.0934 0 0
12:53 pm 12:53 Sunny 69 20.6 22 -5.6 17 17 SE 3 6 30.22 1023 10 16.0934 0 0
1:53 pm 13:53 Sunny 71 21.7 23 -5 16 16 SSE 5 7 30.19 1022 10 16.0934 0 0
2:53 pm 14:53 Sunny 73 22.8 25 -3.9 17 17 SE 3 6 30.17 1022 10 16.0934 0 0
3:53 pm 15:53 Sunny 72 22.2 25 -3.9 17 17 ESE 3 6 30.16 1022 10 16.0934 0 0
4:53 pm 16:53 Sunny 72 22.2 23 -5 16 16 Calm 30.17 1022 10 16.0934 0 0
5:53 pm 17:53 Clear 68 20 23 -5 18 18 Calm 30.18 1022 10 16.0934 0 0
6:53 pm 18:53 Clear 62 16.7 26 -3.3 25 25 NW 6 9 30.19 1023 10 16.0934 0 0
7:53 pm 19:53 Clear 59 15 28 -2.2 31 31 NNW 5 7 30.19 1022 10 16.0934 0 0
8:53 pm 20:53 Clear 56 13.3 27 -2.8 33 33 N 5 7 30.2 1023 10 16.0934 0 0
9:53 pm 21:53 Clear 54 12.2 28 -2.2 37 37 NNW 6 9 30.19 1023 10 16.0934 0 0
10:53 pm 22:53 Clear 52 11.1 28 -2.2 40 40 NNW 6 9 30.19 1022 9 14.48406 0 0
11:53 pm 23:53 Clear 51 10.6 27 -2.8 39 39 W 3 6 30.18 1022 10 16.0934 0 0

Powered by AerisWeather